• In Uzbekistan
  • List of Countries
  • For 7 days
  • Water Temperature
  • Satellite Maps
  • Weather Map
  • Weather Widgets
  • user-avatar
    Login

    Hourly Weather Lankaran

    Today, 2 December, Friday

    Time Temperature Precipitation Wind Pressure Humidity
    00:00 +2°C° 0 mm 3 mps 628 mmHg 85%
    01:00 +2°C° 0.3 mm 3 mps 628 mmHg 86%
    02:00 +3°C° 0.3 mm 3 mps 628 mmHg 87%
    03:00 +3°C° 0 mm 3 mps 627 mmHg 88%
    04:00 +3°C° 0.2 mm 3 mps 627 mmHg 88%
    05:00 +3°C° 0.2 mm 3 mps 627 mmHg 89%
    06:00 +3°C° 0.2 mm 4 mps 626 mmHg 89%
    07:00 +4°C° 0.2 mm 4 mps 626 mmHg 88%
    08:00 +5°C° 0.2 mm 4 mps 626 mmHg 87%
    09:00 +5°C° 0 mm 5 mps 625 mmHg 88%
    10:00 +6°C° 0.9 mm 4 mps 625 mmHg 86%
    11:00 +6°C° 0.9 mm 4 mps 625 mmHg 84%
    12:00 +7°C° 0.9 mm 4 mps 625 mmHg 82%
    13:00 +7°C° 0.1 mm 5 mps 625 mmHg 72%
    14:00 +8°C° 0.1 mm 6 mps 625 mmHg 61%
    15:00 +6°C° 0 mm 8 mps 625 mmHg 50%
    16:00 +5°C° 0 mm 7 mps 626 mmHg 53%
    17:00 +4°C° 0 mm 7 mps 626 mmHg 57%
    18:00 +3°C° 0 mm 6 mps 626 mmHg 61%
    19:00 +3°C° 0 mm 6 mps 626 mmHg 61%
    20:00 +3°C° 0 mm 6 mps 627 mmHg 62%
    21:00 +2°C° 0 mm 6 mps 627 mmHg 63%
    22:00 +2°C° 0 mm 6 mps 627 mmHg 63%
    23:00 +2°C° 0 mm 6 mps 627 mmHg 63%

    Tomorrow, 3 December, Saturday

    Time Temperature Precipitation Wind Pressure Humidity
    00:00 +2°C° 0 mm 6 mps 628 mmHg 63%
    01:00 +2°C° 0 mm 6 mps 628 mmHg 64%
    02:00 +2°C° 0 mm 6 mps 628 mmHg 64%
    03:00 +2°C° 0 mm 6 mps 628 mmHg 64%
    04:00 +1°C° 0 mm 6 mps 628 mmHg 66%
    05:00 +1°C° 0 mm 6 mps 628 mmHg 67%
    06:00 +1°C° 0 mm 6 mps 628 mmHg 68%
    07:00 +2°C° 0 mm 7 mps 629 mmHg 64%
    08:00 +2°C° 0 mm 8 mps 629 mmHg 60%
    09:00 +2°C° 0 mm 9 mps 630 mmHg 56%
    10:00 +3°C° 0 mm 9 mps 630 mmHg 50%
    11:00 +5°C° 0 mm 9 mps 631 mmHg 44%
    12:00 +6°C° 0 mm 9 mps 631 mmHg 38%
    13:00 +6°C° 0 mm 8 mps 631 mmHg 39%
    14:00 +6°C° 0 mm 8 mps 632 mmHg 40%
    15:00 +5°C° 0 mm 7 mps 632 mmHg 41%
    16:00 +4°C° 0 mm 6 mps 633 mmHg 45%
    17:00 +3°C° 0 mm 6 mps 633 mmHg 48%
    18:00 +2°C° 0 mm 5 mps 634 mmHg 52%
    19:00 +1°C° 0 mm 4 mps 634 mmHg 52%
    20:00 +1°C° 0 mm 4 mps 635 mmHg 53%
    21:00 +1°C° 0 mm 4 mps 635 mmHg 53%
    22:00 0°C° 0 mm 4 mps 636 mmHg 53%
    23:00 +1°C° 0 mm 3 mps 636 mmHg 52%

    Day after tomorrow, 4 December, Sunday

    Time Temperature Precipitation Wind Pressure Humidity
    00:00 +1°C° 0 mm 3 mps 636 mmHg 51%
    01:00 0°C° 0 mm 4 mps 637 mmHg 51%
    02:00 0°C° 0 mm 4 mps 637 mmHg 51%
    03:00 -1°C° 0 mm 5 mps 637 mmHg 51%
    04:00 -1°C° 0 mm 5 mps 637 mmHg 51%
    05:00 -1°C° 0 mm 5 mps 637 mmHg 52%
    06:00 -1°C° 0 mm 4 mps 637 mmHg 52%
    07:00 0°C° 0 mm 4 mps 638 mmHg 51%
    08:00 +1°C° 0 mm 4 mps 638 mmHg 49%
    09:00 +3°C° 0 mm 3 mps 638 mmHg 47%
    10:00 +4°C° 0 mm 3 mps 638 mmHg 43%
    11:00 +5°C° 0 mm 4 mps 638 mmHg 38%
    12:00 +6°C° 0 mm 4 mps 638 mmHg 34%
    13:00 +6°C° 0 mm 4 mps 637 mmHg 35%
    14:00 +7°C° 0 mm 3 mps 637 mmHg 37%
    15:00 +5°C° 0 mm 3 mps 636 mmHg 39%
    16:00 +4°C° 0 mm 3 mps 636 mmHg 42%
    17:00 +3°C° 0 mm 3 mps 636 mmHg 45%
    18:00 +2°C° 0 mm 3 mps 636 mmHg 49%
    19:00 +2°C° 0 mm 3 mps 635 mmHg 47%
    20:00 +1°C° 0 mm 3 mps 635 mmHg 46%
    21:00 +1°C° 0 mm 3 mps 635 mmHg 44%
    22:00 +1°C° 0 mm 3 mps 635 mmHg 44%
    23:00 +1°C° 0 mm 3 mps 635 mmHg 44%

    5 December, Monday

    Time Temperature Precipitation Wind Pressure Humidity
    00:00 0°C° 0 mm 3 mps 635 mmHg 44%
    01:00 0°C° 0 mm 3 mps 635 mmHg 45%
    02:00 0°C° 0 mm 3 mps 635 mmHg 45%
    03:00 -1°C° 0 mm 3 mps 635 mmHg 46%
    04:00 -1°C° 0 mm 3 mps 635 mmHg 48%
    05:00 -1°C° 0 mm 3 mps 635 mmHg 49%
    06:00 -1°C° 0 mm 3 mps 635 mmHg 50%
    07:00 -1°C° 0 mm 3 mps 636 mmHg 52%
    08:00 0°C° 0 mm 3 mps 636 mmHg 54%
    09:00 0°C° 0 mm 3 mps 636 mmHg 57%
    10:00 +1°C° 0 mm 3 mps 636 mmHg 58%
    11:00 +1°C° 0 mm 3 mps 636 mmHg 59%
    12:00 +2°C° 0 mm 3 mps 635 mmHg 61%
    13:00 +2°C° 0 mm 3 mps 635 mmHg 64%
    14:00 +1°C° 0 mm 3 mps 635 mmHg 66%
    15:00 +1°C° 0 mm 3 mps 635 mmHg 69%
    16:00 +1°C° 0 mm 3 mps 635 mmHg 73%
    17:00 0°C° 0 mm 3 mps 635 mmHg 76%
    18:00 -1°C° 0 mm 3 mps 635 mmHg 80%
    19:00 -1°C° 0.1 mm 3 mps 635 mmHg 81%
    20:00 -1°C° 0.1 mm 3 mps 635 mmHg 82%
    21:00 -1°C° 0.1 mm 3 mps 635 mmHg 84%
    22:00 -1°C° 0.3 mm 3 mps 635 mmHg 84%
    23:00 -2°C° 0.3 mm 3 mps 635 mmHg 85%

    6 December, Tuesday

    Time Temperature Precipitation Wind Pressure Humidity
    00:00 -2°C° 0.3 mm 3 mps 635 mmHg 86%
    01:00 -3°C° 0.7 mm 4 mps 635 mmHg 87%
    02:00 -3°C° 0.7 mm 4 mps 635 mmHg 88%
    03:00 -3°C° 0.7 mm 4 mps 635 mmHg 89%
    04:00 -4°C° 1.6 mm 4 mps 635 mmHg 90%
    05:00 -4°C° 1.6 mm 4 mps 635 mmHg 92%
    06:00 -6°C° 1.6 mm 5 mps 636 mmHg 93%
    07:00 -6°C° 1.7 mm 5 mps 636 mmHg 93%
    08:00 -7°C° 1.7 mm 4 mps 636 mmHg 93%
    09:00 -7°C° 1.7 mm 4 mps 636 mmHg 92%
    10:00 -7°C° 1.1 mm 4 mps 636 mmHg 92%
    11:00 -7°C° 1.1 mm 4 mps 636 mmHg 91%
    12:00 -7°C° 1.1 mm 4 mps 636 mmHg 90%
    13:00 -6°C° 0.8 mm 3 mps 636 mmHg 90%
    14:00 -6°C° 0.8 mm 3 mps 636 mmHg 90%
    15:00 -6°C° 0.8 mm 3 mps 636 mmHg 90%
    16:00 -6°C° 0.5 mm 2 mps 636 mmHg 90%
    17:00 -6°C° 0.5 mm 2 mps 636 mmHg 90%
    18:00 -6°C° 0.5 mm 2 mps 636 mmHg 91%
    19:00 -7°C° 0.1 mm 2 mps 636 mmHg 90%
    20:00 -7°C° 0.1 mm 2 mps 635 mmHg 90%
    21:00 -8°C° 0.1 mm 2 mps 635 mmHg 89%
    22:00 -8°C° 0 mm 2 mps 635 mmHg 88%
    23:00 -9°C° 0 mm 2 mps 634 mmHg 86%

    7 December, Wednesday

    Time Temperature Precipitation Wind Pressure Humidity
    00:00 -9°C° 0 mm 2 mps 634 mmHg 85%
    01:00 -9°C° 0 mm 2 mps 634 mmHg 82%
    02:00 -9°C° 0 mm 2 mps 633 mmHg 79%
    03:00 -9°C° 0 mm 2 mps 633 mmHg 76%
    04:00 -9°C° 0 mm 2 mps 633 mmHg 73%
    05:00 -9°C° 0 mm 2 mps 633 mmHg 69%
    06:00 -8°C° 0 mm 2 mps 633 mmHg 66%
    07:00 -7°C° 0 mm 2 mps 634 mmHg 66%
    08:00 -6°C° 0 mm 2 mps 634 mmHg 66%
    09:00 -4°C° 0 mm 2 mps 634 mmHg 66%
    10:00 -3°C° 0 mm 2 mps 634 mmHg 68%
    11:00 -2°C° 0 mm 3 mps 634 mmHg 71%
    12:00 0°C° 0 mm 3 mps 634 mmHg 73%
    13:00 -1°C° 0 mm 3 mps 633 mmHg 73%
    14:00 -1°C° 0 mm 3 mps 633 mmHg 73%
    15:00 -2°C° 0 mm 3 mps 633 mmHg 74%
    16:00 -4°C° 0 mm 3 mps 632 mmHg 70%
    17:00 -6°C° 0 mm 3 mps 632 mmHg 66%
    18:00 -6°C° 0 mm 2 mps 632 mmHg 63%
    19:00 -7°C° 0 mm 3 mps 632 mmHg 61%
    20:00 -7°C° 0 mm 3 mps 632 mmHg 59%
    21:00 -8°C° 0 mm 3 mps 632 mmHg 58%
    22:00 -8°C° 0 mm 3 mps 632 mmHg 58%
    23:00 -9°C° 0 mm 3 mps 631 mmHg 59%
    Show more